Date String (YYYY-MM-DD hh:mm:ss) UTC,Instrument flags,Ambient pressure (hPa),Sample flow (lpm),Bypass flow (lpm),Sample temperature (°C),Ambient temperature (°C),ASC tube jacket temperature (°C),LED temperature (°C),Box temperature (°C),Sample RH (%),Span deviation,Mass concentration (μg/m³),Mass concentration (μg/m³),Mass concentration (μg/m³)
DateTimeUTC,F1_M11,P_M11,Q1_M11,Q2_M11,T1_M11,T2_M11,T3_M11,T4_M11,T5_M11,U1_M11,ZSPAN_M11,X2_M11,X0_M11,X1_M11
2023-02-18 22:00:00,,0816.4,4.98,0.00,22.1,21.6,00.0,30.8,24.1,05.7,0000.0,0001.48,0003.16,0000.90
2023-02-18 22:01:00,,0816.5,4.99,0.00,22.2,22.6,00.0,30.8,24.3,05.6,0000.0,0001.45,0003.10,0000.90
2023-02-18 22:02:00,,0816.5,5.00,0.00,22.3,22.5,00.0,30.9,24.4,05.6,0000.0,0001.47,0003.13,0000.91
2023-02-18 22:03:00,,0816.5,4.99,0.00,22.3,22.2,00.0,31.0,24.4,05.1,0000.0,0001.42,0003.03,0000.90
2023-02-18 22:04:00,,0816.7,5.04,0.00,22.4,21.9,00.0,31.0,24.3,05.9,0000.0,0001.38,0002.96,0000.89
2023-02-18 22:05:00,,0816.6,4.96,0.00,22.4,21.7,00.0,31.1,24.3,05.6,0000.0,0001.31,0002.59,0000.88
2023-02-18 22:06:00,,0816.6,5.00,0.00,22.4,21.5,00.0,31.1,24.2,05.6,0000.0,0001.27,0002.25,0000.86
2023-02-18 22:07:00,,0816.5,5.01,0.00,22.4,21.3,00.0,31.1,24.2,05.5,0000.0,0001.23,0002.12,0000.86
2023-02-18 22:08:00,,0816.6,5.02,0.00,22.4,21.2,00.0,31.1,24.2,05.6,0000.0,0001.24,0003.21,0000.88
2023-02-18 22:09:00,,0816.6,5.00,0.00,22.4,21.1,00.0,31.1,24.2,06.0,0000.0,0001.28,0003.83,0000.88
2023-02-18 22:10:00,,0816.6,5.00,0.00,22.3,21.0,00.0,31.2,24.1,05.7,0000.0,0001.29,0003.90,0000.88
2023-02-18 22:11:00,,0816.7,5.00,0.00,22.3,21.0,00.0,31.2,24.1,05.7,0000.0,0001.34,0004.05,0000.89
2023-02-18 22:12:00,,0816.7,4.99,0.00,22.3,21.0,00.0,31.2,24.1,05.5,0000.0,0001.37,0004.24,0000.89
2023-02-18 22:13:00,,0816.7,5.00,0.00,22.3,20.9,00.0,31.2,24.1,05.0,0000.0,0001.36,0004.35,0000.87
2023-02-18 22:14:00,,0816.7,5.00,0.00,22.3,20.9,00.0,31.2,24.1,05.5,0000.0,0001.39,0004.43,0000.87
2023-02-18 22:15:00,,0816.6,5.00,0.00,22.3,20.8,00.0,31.2,24.1,05.7,0000.0,0001.43,0004.50,0000.88
2023-02-18 22:16:00,,0816.6,5.00,0.00,22.3,20.8,00.0,31.2,24.1,05.7,0000.0,0001.45,0004.53,0000.89
2023-02-18 22:17:00,,0816.5,5.01,0.00,22.3,20.8,00.0,31.2,24.1,05.5,0000.0,0001.46,0004.58,0000.90
2023-02-18 22:18:00,,0816.6,5.00,0.00,22.3,20.8,00.0,31.2,24.1,05.6,0000.0,0001.51,0004.74,0000.91
2023-02-18 22:19:00,,0816.6,5.00,0.00,22.3,20.8,00.0,31.2,24.0,05.2,0000.0,0001.54,0003.98,0000.90
2023-02-18 22:20:00,,0816.5,5.00,0.00,22.3,20.7,00.0,31.2,24.0,05.4,0000.0,0001.53,0003.29,0000.89
2023-02-18 22:21:00,,0816.5,4.99,0.00,22.2,20.7,00.0,31.2,24.0,05.6,0000.0,0001.54,0003.27,0000.89
2023-02-18 22:22:00,,0816.5,5.00,0.00,22.2,20.7,00.0,31.1,23.9,05.3,0000.0,0001.53,0003.29,0000.88
2023-02-18 22:23:00,,0816.6,5.00,0.00,22.2,20.7,00.0,31.1,23.9,05.9,0000.0,0001.50,0003.12,0000.88
2023-02-18 22:24:00,,0816.5,5.00,0.00,22.2,20.7,00.0,31.1,23.9,06.0,0000.0,0001.47,0002.92,0000.88
2023-02-18 22:25:00,,0816.5,5.00,0.00,22.2,20.7,00.0,31.1,23.9,05.6,0000.0,0001.43,0002.80,0000.88
2023-02-18 22:26:00,,0816.6,5.01,0.00,22.2,20.7,00.0,31.1,23.9,05.5,0000.0,0001.40,0002.76,0000.88
2023-02-18 22:27:00,,0816.7,5.00,0.00,22.2,20.6,00.0,31.1,23.9,05.2,0000.0,0001.41,0002.80,0000.88
2023-02-18 22:28:00,,0816.7,5.00,0.00,22.2,20.6,00.0,31.1,23.9,05.4,0000.0,0001.41,0002.80,0000.89
2023-02-18 22:29:00,,0816.6,5.00,0.00,22.2,20.6,00.0,31.1,23.9,05.4,0000.0,0001.38,0002.72,0000.88
2023-02-18 22:30:00,,0816.5,5.00,0.00,22.2,20.6,00.0,31.1,23.9,06.0,0000.0,0001.34,0002.52,0000.89
2023-02-18 22:31:00,,0816.4,5.02,0.00,22.1,20.6,00.0,31.1,23.9,05.8,0000.0,0001.31,0002.50,0000.88
2023-02-18 22:32:00,,0816.4,4.99,0.00,22.1,20.6,00.0,31.1,23.9,05.6,0000.0,0001.30,0002.40,0000.88
2023-02-18 22:33:00,,0816.3,4.99,0.00,22.1,20.6,00.0,31.1,23.9,05.7,0000.0,0001.28,0002.88,0000.89
2023-02-18 22:34:00,,0816.3,4.99,0.00,22.1,20.6,00.0,31.1,23.9,05.5,0000.0,0001.29,0003.09,0000.89
2023-02-18 22:35:00,,0816.2,5.00,0.00,22.1,20.6,00.0,31.1,23.9,05.4,0000.0,0001.32,0003.20,0000.89
2023-02-18 22:36:00,,0816.2,5.00,0.00,22.1,20.6,00.0,31.0,23.8,05.3,0000.0,0001.37,0003.32,0000.89
2023-02-18 22:37:00,,0816.2,5.01,0.00,22.1,20.5,00.0,31.0,23.8,05.4,0000.0,0001.37,0003.31,0000.89
2023-02-18 22:38:00,,0816.2,5.00,0.00,22.1,20.5,00.0,31.0,23.8,05.6,0000.0,0001.37,0003.32,0000.88
2023-02-18 22:39:00,,0816.2,5.00,0.00,22.1,20.5,00.0,31.0,23.8,05.7,0000.0,0001.35,0003.29,0000.87
2023-02-18 22:40:00,,0816.2,5.01,0.00,22.1,20.5,00.0,31.0,23.8,04.8,0000.0,0001.35,0003.35,0000.87
2023-02-18 22:41:00,,0816.2,5.00,0.00,22.1,20.5,00.0,31.0,23.8,05.3,0000.0,0001.36,0003.39,0000.87
2023-02-18 22:42:00,,0816.3,5.00,0.00,22.0,20.5,00.0,31.0,23.8,05.6,0000.0,0001.37,0003.36,0000.87
2023-02-18 22:43:00,,0816.2,4.98,0.00,22.0,20.5,00.0,31.0,23.8,05.7,0000.0,0001.36,0003.35,0000.87
2023-02-18 22:44:00,,0816.2,4.99,0.00,22.0,20.5,00.0,31.0,23.8,05.4,0000.0,0001.36,0003.02,0000.87
2023-02-18 22:45:00,,0816.2,5.00,0.00,22.0,20.5,00.0,31.0,23.8,04.7,0000.0,0001.36,0002.95,0000.87
2023-02-18 22:46:00,,0816.3,5.01,0.00,22.0,20.4,00.0,31.0,23.8,04.7,0000.0,0001.37,0003.25,0000.87
2023-02-18 22:47:00,,0816.3,4.96,0.00,22.0,20.4,00.0,31.0,23.8,04.6,0000.0,0001.35,0003.20,0000.87
2023-02-18 22:48:00,,0816.3,5.01,0.00,22.0,20.4,00.0,30.9,23.8,05.1,0000.0,0001.35,0003.18,0000.87
2023-02-18 22:49:00,,0816.1,4.99,0.00,22.0,20.4,00.0,30.9,23.7,05.8,0000.0,0001.39,0003.72,0000.87
2023-02-18 22:50:00,,0816.2,5.00,0.00,22.0,20.3,00.0,30.9,23.7,05.3,0000.0,0001.39,0004.78,0000.86
2023-02-18 22:51:00,,0816.2,5.00,0.00,22.0,20.4,00.0,30.9,23.7,05.2,0000.0,0001.38,0004.79,0000.86
2023-02-18 22:52:00,,0816.2,5.00,0.00,22.0,20.4,00.0,30.9,23.7,05.0,0000.0,0001.41,0004.95,0000.86
2023-02-18 22:53:00,,0816.1,5.00,0.00,22.0,20.4,00.0,30.9,23.7,05.3,0000.0,0001.42,0005.01,0000.86
2023-02-18 22:54:00,,0816.1,5.00,0.00,21.9,20.4,00.0,30.9,23.7,05.2,0000.0,0001.42,0005.09,0000.87
2023-02-18 22:55:00,,0816.1,4.99,0.00,21.9,20.4,00.0,30.9,23.7,05.1,0000.0,0001.43,0005.47,0000.86
2023-02-18 22:56:00,,0816.1,4.99,0.00,21.9,20.3,00.0,30.9,23.6,05.2,0000.0,0001.46,0005.12,0000.86
2023-02-18 22:57:00,,0816.0,5.00,0.00,21.9,20.3,00.0,30.9,23.6,05.3,0000.0,0001.44,0004.70,0000.86
2023-02-18 22:58:00,,0816.2,5.00,0.00,21.9,20.3,00.0,30.8,23.6,05.3,0000.0,0001.44,0004.94,0000.86
2023-02-18 22:59:00,,0816.3,4.98,0.00,21.9,20.5,00.0,30.8,23.7,05.5,0000.0,0001.47,0005.12,0000.86
